Regional Weather Roundup
Issued by NWS

Home | Current Version | Previous Version | Text Only | Print | Product List | Glossary On
Versions: 1 2 3 4 5 6 7 8 9 10 11 12 13 14 15 16 17 18 19 20 21 22 23 24 25 26 27 28 29 30 31 32 33 34 35 36 37 38 39 40 41 42 43 44 45 46 47 48 49 50
000
ASUS43 KLMK 252302
RWRKY
KENTUCKY REGIONAL WEATHER ROUNDUP
NATIONAL WEATHER SERVICE LOUISVILLE KY
600 PM EST SAT FEB 25 2017

NOTE "FAIR" INDICATES FEW OR NO CLOUDS BELOW 12,000 FEET
WITH NO SIGNIFICANT WEATHER AND/OR OBSTRUCTIONS TO VISIBILITY.

KYZ001>023-026-027-061>063-070>075-260000-
WESTERN AND SOUTH CENTRAL KENTUCKY

CITY           SKY/WX    TMP DP  RH WIND       PRES   REMARKS
PADUCAH        CLEAR     43  14  31 W12       30.09S
HENDERSON      CLEAR     39  18  41 W15G21    30.09R WCI  31
OWENSBORO      CLEAR     39  18  42 W12       30.08R WCI  32
HOPKINSVILLE   CLEAR     42  18  38 NW9       30.07R
BOWLING GREEN  CLEAR     42  17  36 NW8       30.07R
GLASGOW        NOT AVBL
$$

KYZ024-025-028>034-038-045-046-053-260000-
NORTH CENTRAL KENTUCKY

CITY           SKY/WX    TMP DP  RH WIND       PRES   REMARKS
LOUISVILLE/SDF PTCLDY    38  16  40 W15       30.03R WCI  29
LOUISVILLE/LOU PTCLDY    39  17  41 NW15      30.04R WCI  31
FORT KNOX      MOCLDY    38  19  46 W15       30.02R WCI  29
$$

KYZ035>037-039>044-047>052-055>060-089>105-260000-
NORTHEAST KENTUCKY

CITY           SKY/WX    TMP DP  RH WIND       PRES   REMARKS
LEXINGTON      MOCLDY    35  18  49 W12       30.01R WCI  27
COVINGTON      CLOUDY    32  19  58 W10       29.99R WCI  24
FRANKFORT      PTCLDY    36  17  46 VRB7      30.01R WCI  30
$$

KYZ054-064>069-076>088-106>120-260000-
SOUTHEAST KENTUCKY

CITY           SKY/WX    TMP DP  RH WIND       PRES   REMARKS
JACKSON        CLEAR     37  19  48 NW12      29.96R WCI  29
LONDON         CLEAR     39  19  44 W13       29.99R WCI  31
SOMERSET       CLEAR     36  19  51 W15       30.05R WCI  26
MIDDLESBORO    CLEAR     43  20  40 NW15G21   29.98R
MONTICELLO     CLEAR     38  21  50 NW16      30.05R WCI  29
$$




USA.gov is the U.S. government's official web portal to all federal, state and local government web resources and services.